{"data":{"norad_id":62507,"intl_designator":"2025-003W","name":"STARLINK-32679","alt_names":[],"object_type":"PAYLOAD","status":"ACTIVE","operator":null,"country":"US","launch_date":"2025-01-06","launch_site_code":"AFETR","launch_vehicle":null,"mission":null,"orbit_class":"UNKNOWN","rcs_meters":null,"size_class":null,"mass_kg":null,"dimensions":null,"purposes":["comms"],"wikipedia_slug":null,"has_3d_model":false,"image_url":null,"decayed_at":null,"tle_current":{"epoch":"2026-09-21T07:18:51.228576Z","epoch_age_seconds":105037,"freshness":"FRESH","line1":"1 62507U 25003W   26264.30475959  .00010917  00000+0  40542-3 0  9997","line2":"2 62507  43.0022 264.6061 0001271 269.6326  90.4380 15.27598105 96588","mean_motion":15.27598105,"eccentricity":0.0001271,"inclination_deg":43.0022,"raan_deg":264.6061,"arg_perigee_deg":269.6326,"mean_anomaly_deg":90.438,"bstar":0.00040542,"rev_number":9658,"period_min":94.265631469869,"perigee_km":482.12283382943,"apogee_km":483.86693355427,"semimajor_km":6861.1318836919,"source":"CELESTRAK","updated_at":"2026-09-22T09:00:49.620387Z"}}}